This is the latest recevied weather packets stored in our database for station/object GW4003. If no packets are shown the sender has not sent any weather packets the latest 10 day(s).
| Time | Temp. | Humidity | Pressure | Rain* | Wind** | Luminosity | Snow |
|---|---|---|---|---|---|---|---|
| 1777676818 | 16.67° C | 16% | 1019.6 hPa | 0 mm | - | - | - |
| 1777676515 | 16.67° C | 17% | 1019.5 hPa | 0 mm | - | - | - |
| 1777676212 | 16.67° C | 17% | 1019.4 hPa | 0 mm | - | - | - |
| 1777675908 | 16.11° C | 16% | 1019.4 hPa | 0 mm | - | - | - |
| 1777675605 | 16.67° C | 16% | 1019.5 hPa | 0 mm | - | - | - |
| 1777675302 | 16.67° C | 17% | 1019.6 hPa | 0 mm | - | - | - |
| 1777674998 | 16.67° C | 16% | 1019.5 hPa | 0 mm | - | - | - |
| 1777674695 | 16.11° C | 17% | 1019.6 hPa | 0 mm | - | - | - |
| 1777674393 | 16.67° C | 17% | 1019.5 hPa | 0 mm | - | - | - |
| 1777674090 | 16.67° C | 16% | 1019.6 hPa | 0 mm | - | - | - |
| 1777673786 | 16.11° C | 17% | 1019.6 hPa | 0 mm | - | - | - |
| 1777673482 | 16.67° C | 16% | 1019.6 hPa | 0 mm | - | - | - |
| 1777673179 | 16.67° C | 16% | 1019.7 hPa | 0 mm | - | - | - |
| 1777672876 | 17.22° C | 16% | 1019.7 hPa | 0 mm | - | - | - |
| 1777672573 | 17.22° C | 17% | 1019.7 hPa | 0 mm | - | - | - |
| 1777672270 | 16.67° C | 18% | 1019.9 hPa | 0 mm | - | - | - |
| 1777671967 | 16.11° C | 17% | 1020 hPa | 0 mm | - | - | - |
| 1777671663 | 15.56° C | 18% | 1020.1 hPa | 0 mm | - | - | - |
| 1777671360 | 15.56° C | 17% | 1020.2 hPa | 0 mm | - | - | - |
| 1777671057 | 16.11° C | 18% | 1020.3 hPa | 0 mm | - | - | - |
| 1777670754 | 16.11° C | 18% | 1020.3 hPa | 0 mm | - | - | - |
| 1777670451 | 16.67° C | 19% | 1020.4 hPa | 0 mm | - | - | - |
| 1777670147 | 16.67° C | 18% | 1020.2 hPa | 0 mm | - | - | - |
| 1777669844 | 16.11° C | 20% | 1020.4 hPa | 0 mm | - | - | - |
| 1777669541 | 16.11° C | 19% | 1020.5 hPa | 0 mm | - | - | - |
* Rain latest hour (hover to see other rain measurements)
** Current wind speed in m/s (hover to see current wind gust speed)